SKYSAT-C9

Last updated on Mon Sep 21 2026 00:02:46 GMT+0000 (Coordinated Universal Time)

1 42989U 17068C 26263.13938775 .00010388 00000+0 23230-3 0 9998 2 42989 97.4550 42.9784 0008565 146.4310 213.7482 15.43649484497398
UTC large
Height (km)
Speed (km/s)
/
Latitude / Longitude
Inclination (degrees)
Orbital Period (minutes)
Azimuth
Elevation
Range (km)
Doppler Factor

Next 0 passes for location: London (51.5072 / 0.1276)

No passes found over London.
SKYSAT-C9